SAZS Airport Information

Runway Information
Runway 11 Length 7703 ft width 157 ft
Elevation 2749 ft Threshold 0 ft Heading 115
Runway 29 Length 7703 ft Width 157 ft
Elevation 2772 ft Threshold 0 ft Heading 295
Airport Frequencies
Type ATIS Name ATIS Frequency 127.9 MHZ
Type RDO Name BARILOCHE Frequency 122.3 MHZ
Type TWR Name BARILOCHE Frequency 119.1 MHZ
Airport Navaids
Type VOR-DME Name San Carlos De Bariloche Frequency 117400 KHZ
Airport Weather Information & NOTAM
ADDS - METARS form results

(0133 UTC 19 August 2018)
 
METAR text: SAZS 190100Z VRB04KT CAVOK M01/M07 Q1032 NOSIG
Conditions at: SAZS (SAN CARLOS BARIL, AR) observed 0100 UTC 19 August 2018
Temperature: -1.0°C (30°F)
Dewpoint: -7.0°C (19°F) [RH = 64%]
Pressure (altimeter): 30.47 inches Hg (1032.0 mb)
Winds: variable direction winds at 5 MPH (4 knots; 2.1 m/s)
Visibility: 6 or more miles (10+ km)
Ceiling: ceiling and visibility are OK
Clouds: unknown
Weather: no significant weather observed at this time